Location: Newark
(47.5833°N, 8.1500°E)
Time: 08:23:01
(UTC+00:00)

Vanguard 1 - Pass Details

Date: 05 November 2020
Orbit: 650 x 3833 km, 34.2° (Epoch: 29 November)

Event Time Altitude Azimuth Distance (km) Brightness Sun altitude
Rises 14:23:40 0° 271° (W) 7,637 15.4 13.3°
Reaches altitude 10° 14:28:52 10° 267° (W) 6,803 15.3 12.6°
Maximum altitude 14:50:22 48° 203° (SSW) 4,331 14.1 9.8°
Drops below altitude 10° 15:07:37 10° 136° (SE) 5,556 13.8 7.5°
Sets 15:11:22 0° 131° (SE) 6,207 14.0 6.9°
